Location: Fort Worth, Tx
(32.7431°N, 97.3695°W)
Time: 20:49:09
(UTC-04:00)

S-56A Canister/Altair - Pass Details

Date: 01 March 2024
Orbit: 639 x 2488 km, 38.9° (Epoch: 17 April)

Event Time Altitude Azimuth Distance (km) Brightness Sun altitude
Rises 05:41:34 0° 189° (S) 5,916 11.9 -29.1°
Reaches altitude 10° 05:48:03 10° 170° (S) 4,613 11.5 -27.8°
Maximum altitude 05:54:12 15° 140° (SE) 3,817 11.4 -26.5°
Drops below altitude 10° 05:59:27 10° 109° (ESE) 3,848 11.9 -25.4°
Sets 06:03:55 0° 88° (E) 4,461 12.8 -24.5°
